Location: Saratoga Springs
(43.0831°N, 73.7850°W)
Time: 05:59:46
(UTC-04:00)

Vanguard 2 - Pass Details

Date: 26 April 2024
Orbit: 553 x 2914 km, 32.9° (Epoch: 17 May)

Event Time Altitude Azimuth Distance (km) Brightness Sun altitude
Rises 04:32:23 0° 268° (W) 5,960 - -14.3°
Exits shadow 04:35:30 - 265° (W) 5,305 11.3 -13.8°
Reaches altitude 10° 04:36:04 10° 264° (W) 5,188 11.2 -13.7°
Maximum altitude 04:51:35 54° 194° (SSW) 3,331 10.5 -11.3°
Drops below altitude 10° 05:07:59 10° 124° (ESE) 5,440 12.2 -8.7°
Sets 05:11:58 0° 120° (ESE) 6,255 12.7 -8.1°
